Location: Blangy-Tronville
(49.8790°N, 2.4226°E)
Time: 06:44:14
(UTC+00:00)

Cosmos 2034 Rocket - Pass Details

Date: 18 November 2025
Orbit: 958 x 998 km, 82.9° (Epoch: 06 December)

Event Time Altitude Azimuth Distance (km) Brightness Sun altitude
Rises 17:55:34 0° 171° (S) 3,640 7.0 -17.9°
Reaches altitude 10° 17:58:06 10° 166° (SSE) 2,703 6.3 -18.3°
Maximum altitude 18:04:05 54° 92° (E) 1,179 4.0 -19.2°
Drops below altitude 10° 18:10:10 10° 17° (NNE) 2,748 6.1 -20.2°
Sets 18:12:45 0° 13° (NNE) 3,706 6.8 -20.6°
